Tracking 19250 objects as of 23-Sep-2018
HD Live streaming from Space Station
objects crossing your sky now

FENGYUN 1C DEB

Track FENGYUN 1C DEB now!
10-day predictions


NORAD ID: 35235
Int'l Code: 1999-025DQT
Perigee: 515.3 km
Apogee: 572.5 km
Inclination: 99.4 °
Period: 95.4 minutes
Semi major axis: 6914 km
RCS: 0.0016 m2 (small)
Launch date: May 10, 1999
Source: People's Republic of China (PRC)
Launch site: Taiyaun Space Center, China (TSC)

Note: This is SATELLITE DEBRIS
aabbcc
Your satellite tracking list
Your tracking list is empty




NASA's NSSDC Master Catalog

Two Line Element Set (TLE):
1 35235U 99025DQT 18264.84112603 +.00007171 +00000-0 +44034-3 0  9993
2 35235 099.4458 217.7883 0041362 040.2092 320.2179 15.09813586570538
Source of the keplerian elements: AFSPC